Preview of NWS' New Version of Forecast
This preview is not operational and should not be used for support decisions.

Regional Weather Roundup (RWR)

Issued by National Weather Service (NWS)

                            
000
ASUS44 KJAN 170310
RWRMS 

MISSISSIPPI HOURLY WEATHER ROUNDUP
NATIONAL WEATHER SERVICE JACKSON MS
1000 PM CDT SAT MAR 16 2019

NOTE: "FAIR: INDICATES FEW OR NO CLOUDS BELOW 12,000 FEET WITH NO
SIGNIFICANT WEATHER AND/OR OBSTRUCTIONS TO VISIBILITY.

MSZ001>002-007>008-010>013-018>021-025>028-034>036-170400-
NORTHWEST MISSISSIPPI
  
CITY           SKY/WX    TMP DP  RH WIND       PRES   REMARKS
BATESVILLE     FAIR      46  28  49 VRB3      30.34R                  
CLARKSDALE     CLOUDY    43  37  81 N5        30.36R                  
CLEVELAND      FAIR      46  34  63 N5        30.35S                  
GREENWOOD      FAIR      49  32  52 N6        30.33R                  
GREENVILLE     FAIR      45  35  68 N7        30.33S                  
OLIVE BRANCH     N/A     45  27  49 CALM      30.34F HAZE             
OXFORD         FAIR      45  25  45 NE5       30.35R                  
TUNICA           N/A     43  34  70 N5        30.36F                  
WINONA         FAIR      41  35  78 CALM      30.32R                  
$$

MSZ003>006-009-014>017-022>024-029>033-037>039-170400-
NORTHEAST MISSISSIPPI
  
CITY           SKY/WX    TMP DP  RH WIND       PRES   REMARKS
ABERDEEN       FAIR      41  41 100 CALM      30.32S                  
COLUMBUS AFB   FAIR      43  36  75 CALM      30.30S                  
CORINTH        FAIR      46  23  39 N6        30.32F                  
GOLDN TRIANGLE FAIR      48  33  56 N5        30.31S                  
STARKVILLE     FAIR      41  36  81 CALM      30.32S                  
TUPELO         FAIR      46  28  49 N6        30.32R                  
$$

MSZ040-058-170400-
CENTRAL MISSISSIPPI
  
CITY           SKY/WX    TMP DP  RH WIND       PRES   REMARKS
JACKSON INTL   FAIR      49  32  52 N6        30.31S                  
JACKSON HAWKNS FAIR      50  30  46 NW5       30.31S                  
MADISON        FAIR      46  32  57 CALM      30.30S                  
MERIDIAN KEY   FAIR      45  38  76 CALM      30.29F                  
MERIDIAN NAS   FAIR      46  37  71 CALM      30.29S                  
RAYMOND          N/A     50  32  50 CALM      30.31S                  
VICKSBURG VKS  CLEAR     48  36  61 CALM      30.33R                  
$$

MSZ059>079-170400-
SOUTH MISSISSIPPI
  
CITY           SKY/WX    TMP DP  RH WIND       PRES   REMARKS
HATTIESBURG    FAIR      48  38  68 CALM      30.31R                  
LAUREL         CLEAR     45  40  83 NW3       30.30S                  
MCCOMB         FAIR      48  38  68 CALM      30.33R                  
NATCHEZ        FAIR      47  35  63 CALM      30.34R                  
PINE BELT      FAIR      45  38  76 CALM      30.31R                  
$$

MSZ080>082-170400-
COASTAL MISSISSIPPI
  
CITY           SKY/WX    TMP DP  RH WIND       PRES   REMARKS
BILOXI         FAIR      52  39  61 NE6       30.29R                  
PASCAGOULA     FAIR      52  36  54 N3        30.29R                  
GULFPORT       FAIR      52  39  61 NE3       30.28R                  
$$

LAZ007>009-015>016-023>026-170400-
NORTHEAST LOUISIANA
  
CITY           SKY/WX    TMP DP  RH WIND       PRES   REMARKS
BASTROP        FAIR      42  34  73 CALM      30.35R                  
TALLULAH/VBURG FAIR      51  33  50 N5        30.33S                  
VIDALIA        FAIR      51  32  48 CALM      30.34R                  
$$